This is the latest recevied weather packets stored in our database for station/object KG4YZY-1. If no packets are shown the sender has not sent any weather packets the latest 10 day(s).
| Time | Temp. | Humidity | Pressure | Rain* | Wind** | Luminosity | Snow |
|---|---|---|---|---|---|---|---|
| 1787413204 | 30° C | 78% | 1019.2 hPa | 0 mm | - | - | - |
| 1787412904 | 29.44° C | 79% | 1019.2 hPa | 0 mm | - | - | - |
| 1787412604 | 29.44° C | 80% | 1019 hPa | 0 mm | - | - | - |
| 1787412304 | 29.44° C | 80% | 1019 hPa | 0 mm | - | - | - |
| 1787412004 | 28.89° C | 80% | 1019 hPa | 0 mm | - | - | - |
| 1787411704 | 28.89° C | 79% | 1019 hPa | 0 mm | - | - | - |
| 1787411404 | 28.33° C | 78% | 1019.1 hPa | 0 mm | - | - | - |
| 1787411103 | 28.33° C | 78% | 1019.2 hPa | 0 mm | - | - | - |
| 1787410803 | 28.33° C | 77% | 1019.1 hPa | 0 mm | - | - | - |
| 1787410503 | 28.33° C | 77% | 1019 hPa | 0 mm | - | - | - |
| 1787410204 | 27.78° C | 77% | 1019 hPa | 0 mm | - | - | - |
| 1787409904 | 27.78° C | 76% | 1019.1 hPa | 0 mm | - | - | - |
| 1787409604 | 27.78° C | 77% | 1019.1 hPa | 0 mm | - | - | - |
| 1787409304 | 27.78° C | 78% | 1019.1 hPa | 0 mm | - | - | - |
| 1787409004 | 27.78° C | 78% | 1019.1 hPa | 0 mm | - | - | - |
| 1787408704 | 27.78° C | 78% | 1019 hPa | 0 mm | - | - | - |
| 1787408404 | 28.33° C | 79% | 1019 hPa | 0 mm | - | - | - |
| 1787408104 | 28.33° C | 79% | 1019.1 hPa | 0 mm | - | - | - |
| 1787407803 | 28.33° C | 79% | 1018.9 hPa | 0 mm | - | - | - |
| 1787407504 | 28.33° C | 80% | 1018.9 hPa | 0 mm | - | - | - |
| 1787407203 | 28.89° C | 81% | 1018.7 hPa | 0 mm | - | - | - |
| 1787406903 | 28.89° C | 82% | 1018.8 hPa | 0 mm | - | - | - |
| 1787406605 | 28.89° C | 82% | 1018.8 hPa | 0 mm | - | - | - |
| 1787406303 | 29.44° C | 81% | 1018.8 hPa | 0 mm | - | - | - |
| 1787406004 | 29.44° C | 81% | 1018.7 hPa | 0 mm | - | - | - |
* Rain latest hour (hover to see other rain measurements)
** Current wind speed in m/s (hover to see current wind gust speed)